When you browse on this site, cookies collect data to enhance your experience and personalize the content and advertising you see.
Visit our Privacy Policy to learn more. By continuing to use the site, you agree to this use of cookies and data.
  • In United Kingdom
  • List of Countries
  • For 7 days
  • Water Temperature
  • Satellite Maps
  • Weather Map
  • Weather Widgets
  • user-avatar
    Login

    Hourly Weather Lozenec

    Today, 20 May, Monday

    Time Temperature Precipitation Wind Pressure Humidity
    00:00 +19°C° 0 mm 2 mps 754 mmHg 74%
    01:00 +19°C° 0 mm 2 mps 754 mmHg 72%
    02:00 +19°C° 0 mm 3 mps 753 mmHg 66%
    03:00 +19°C° 0 mm 3 mps 753 mmHg 66%
    04:00 +19°C° 0 mm 3 mps 753 mmHg 65%
    05:00 +18°C° 0 mm 3 mps 753 mmHg 65%
    06:00 +20°C° 0 mm 3 mps 753 mmHg 63%
    07:00 +22°C° 0 mm 3 mps 753 mmHg 61%
    08:00 +25°C° 0 mm 2 mps 753 mmHg 58%
    09:00 +26°C° 0 mm 3 mps 754 mmHg 53%
    10:00 +27°C° 0 mm 4 mps 754 mmHg 48%
    11:00 +28°C° 0 mm 4 mps 754 mmHg 43%
    12:00 +28°C° 0 mm 4 mps 754 mmHg 43%
    13:00 +29°C° 0 mm 5 mps 754 mmHg 44%
    14:00 +28°C° 0 mm 5 mps 754 mmHg 45%
    15:00 +28°C° 0 mm 5 mps 754 mmHg 48%
    16:00 +27°C° 0 mm 5 mps 753 mmHg 52%
    17:00 +26°C° 0 mm 5 mps 753 mmHg 56%
    18:00 +25°C° 0 mm 5 mps 754 mmHg 57%
    19:00 +22°C° 0 mm 5 mps 754 mmHg 57%
    20:00 +21°C° 0 mm 5 mps 754 mmHg 58%
    21:00 +21°C° 0 mm 6 mps 754 mmHg 56%
    22:00 +21°C° 0 mm 6 mps 755 mmHg 54%
    23:00 +21°C° 0 mm 7 mps 755 mmHg 52%

    Tomorrow, 21 May, Tuesday

    Time Temperature Precipitation Wind Pressure Humidity
    00:00 +20°C° 0 mm 6 mps 755 mmHg 57%
    01:00 +19°C° 0 mm 5 mps 755 mmHg 61%
    02:00 +19°C° 0 mm 4 mps 756 mmHg 65%
    03:00 +18°C° 0 mm 4 mps 756 mmHg 69%
    04:00 +18°C° 0 mm 3 mps 756 mmHg 72%
    05:00 +17°C° 0 mm 3 mps 756 mmHg 76%
    06:00 +19°C° 0 mm 3 mps 756 mmHg 71%
    07:00 +21°C° 0 mm 3 mps 756 mmHg 67%
    08:00 +24°C° 0 mm 3 mps 756 mmHg 62%
    09:00 +25°C° 0 mm 3 mps 756 mmHg 56%
    10:00 +26°C° 0 mm 3 mps 756 mmHg 50%
    11:00 +28°C° 0 mm 3 mps 756 mmHg 44%
    12:00 +28°C° 0 mm 4 mps 756 mmHg 43%
    13:00 +29°C° 0 mm 4 mps 755 mmHg 42%
    14:00 +29°C° 0 mm 5 mps 755 mmHg 41%
    15:00 +28°C° 0 mm 5 mps 755 mmHg 43%
    16:00 +28°C° 0 mm 5 mps 755 mmHg 46%
    17:00 +27°C° 0 mm 5 mps 755 mmHg 48%
    18:00 +25°C° 0 mm 4 mps 755 mmHg 52%
    19:00 +22°C° 0 mm 4 mps 755 mmHg 56%
    20:00 +20°C° 0 mm 4 mps 755 mmHg 60%
    21:00 +19°C° 0 mm 4 mps 756 mmHg 60%
    22:00 +19°C° 0 mm 4 mps 756 mmHg 60%
    23:00 +18°C° 0 mm 4 mps 757 mmHg 60%

    Day after tomorrow, 22 May, Wednesday

    Time Temperature Precipitation Wind Pressure Humidity
    00:00 +17°C° 0 mm 3 mps 757 mmHg 65%
    01:00 +16°C° 0 mm 3 mps 757 mmHg 70%
    02:00 +16°C° 0 mm 3 mps 757 mmHg 75%
    03:00 +14°C° 0 mm 3 mps 757 mmHg 77%
    04:00 +14°C° 0 mm 3 mps 757 mmHg 79%
    05:00 +15°C° 0 mm 2 mps 757 mmHg 81%
    06:00 +17°C° 0 mm 2 mps 758 mmHg 75%
    07:00 +20°C° 0 mm 2 mps 758 mmHg 69%
    08:00 +23°C° 0 mm 1 mps 758 mmHg 63%
    09:00 +24°C° 0 mm 1 mps 758 mmHg 59%
    10:00 +26°C° 0 mm 1 mps 759 mmHg 54%
    11:00 +27°C° 0 mm 1 mps 759 mmHg 49%
    12:00 +27°C° 0 mm 2 mps 759 mmHg 51%
    13:00 +26°C° 0 mm 2 mps 758 mmHg 53%
    14:00 +25°C° 0 mm 3 mps 758 mmHg 55%
    15:00 +25°C° 0 mm 3 mps 758 mmHg 56%
    16:00 +25°C° 0 mm 3 mps 758 mmHg 57%
    17:00 +25°C° 0 mm 3 mps 757 mmHg 57%
    18:00 +24°C° 0 mm 3 mps 757 mmHg 63%
    19:00 +21°C° 0 mm 3 mps 758 mmHg 69%
    20:00 +19°C° 0 mm 2 mps 758 mmHg 75%
    21:00 +19°C° 0 mm 2 mps 758 mmHg 73%
    22:00 +19°C° 0 mm 2 mps 758 mmHg 71%
    23:00 +19°C° 0 mm 2 mps 758 mmHg 69%

    23 May, Thursday

    Time Temperature Precipitation Wind Pressure Humidity
    00:00 +18°C° 0 mm 2 mps 758 mmHg 67%
    01:00 +19°C° 0 mm 1 mps 758 mmHg 64%
    02:00 +19°C° 0 mm 1 mps 757 mmHg 62%
    03:00 +18°C° 0 mm 1 mps 757 mmHg 61%
    04:00 +18°C° 0 mm 1 mps 757 mmHg 60%
    05:00 +18°C° 0 mm 1 mps 757 mmHg 60%
    06:00 +20°C° 0 mm 1 mps 757 mmHg 59%
    07:00 +21°C° 0 mm 1 mps 757 mmHg 58%
    08:00 +20°C° 0 mm 0 mps 757 mmHg 57%
    09:00 +24°C° 0 mm 1 mps 757 mmHg 52%
    10:00 +26°C° 0 mm 1 mps 757 mmHg 48%
    11:00 +28°C° 0 mm 1 mps 757 mmHg 43%
    12:00 +28°C° 0 mm 2 mps 757 mmHg 43%
    13:00 +28°C° 0 mm 2 mps 757 mmHg 44%
    14:00 +28°C° 0 mm 3 mps 757 mmHg 44%
    15:00 +27°C° 0 mm 3 mps 756 mmHg 50%
    16:00 +26°C° 0 mm 3 mps 756 mmHg 57%
    17:00 +25°C° 0 mm 3 mps 756 mmHg 63%
    18:00 +24°C° 0 mm 3 mps 756 mmHg 65%
    19:00 +21°C° 0 mm 3 mps 755 mmHg 67%
    20:00 +20°C° 0 mm 3 mps 755 mmHg 69%
    21:00 +19°C° 0 mm 2 mps 755 mmHg 70%
    22:00 +18°C° 0 mm 2 mps 755 mmHg 72%
    23:00 +18°C° 0 mm 1 mps 755 mmHg 73%

    24 May, Friday

    Time Temperature Precipitation Wind Pressure Humidity
    00:00 +18°C° 0 mm 1 mps 755 mmHg 74%
    01:00 +16°C° 0 mm 1 mps 754 mmHg 75%
    02:00 +16°C° 0 mm 1 mps 754 mmHg 75%
    03:00 +16°C° 0 mm 1 mps 754 mmHg 76%
    04:00 +18°C° 0 mm 1 mps 754 mmHg 76%
    05:00 +18°C° 0 mm 1 mps 754 mmHg 77%
    06:00 +19°C° 0 mm 1 mps 754 mmHg 76%
    07:00 +19°C° 0 mm 2 mps 754 mmHg 76%
    08:00 +20°C° 0 mm 2 mps 754 mmHg 75%
    09:00 +21°C° 0 mm 3 mps 753 mmHg 72%
    10:00 +22°C° 0 mm 3 mps 753 mmHg 69%
    11:00 +22°C° 0 mm 4 mps 753 mmHg 66%
    12:00 +23°C° 0 mm 4 mps 753 mmHg 65%
    13:00 +23°C° 0 mm 4 mps 753 mmHg 64%
    14:00 +25°C° 0 mm 5 mps 752 mmHg 63%
    15:00 +23°C° 0 mm 4 mps 752 mmHg 64%
    16:00 +22°C° 0 mm 4 mps 752 mmHg 66%
    17:00 +22°C° 0 mm 3 mps 751 mmHg 68%
    18:00 +20°C° 0 mm 2 mps 751 mmHg 74%
    19:00 +18°C° 0 mm 2 mps 752 mmHg 81%
    20:00 +18°C° 0 mm 1 mps 752 mmHg 87%
    21:00 +16°C° 0.2 mm 1 mps 752 mmHg 87%
    22:00 +16°C° 0.2 mm 1 mps 752 mmHg 87%
    23:00 +16°C° 0.2 mm 1 mps 752 mmHg 86%

    25 May, Saturday

    Time Temperature Precipitation Wind Pressure Humidity
    00:00 +16°C° 1.6 mm 2 mps 752 mmHg 89%
    01:00 +16°C° 1.6 mm 2 mps 752 mmHg 92%
    02:00 +16°C° 1.6 mm 3 mps 752 mmHg 96%
    03:00 +16°C° 0.1 mm 3 mps 752 mmHg 95%
    04:00 +16°C° 0.1 mm 2 mps 752 mmHg 95%
    05:00 +16°C° 0.1 mm 2 mps 753 mmHg 95%
    06:00 +17°C° 0 mm 2 mps 753 mmHg 92%
    07:00 +18°C° 0 mm 2 mps 753 mmHg 89%
    08:00 +19°C° 0 mm 2 mps 754 mmHg 86%
    09:00 +21°C° 0.1 mm 2 mps 754 mmHg 79%
    10:00 +23°C° 0.1 mm 1 mps 754 mmHg 72%
    11:00 +24°C° 0.1 mm 1 mps 754 mmHg 66%
    12:00 +24°C° 0.6 mm 1 mps 754 mmHg 69%
    13:00 +24°C° 0.6 mm 1 mps 754 mmHg 73%
    14:00 +24°C° 0.6 mm 2 mps 754 mmHg 77%
    15:00 +24°C° 0.2 mm 2 mps 754 mmHg 74%
    16:00 +24°C° 0.2 mm 2 mps 754 mmHg 71%
    17:00 +25°C° 0.2 mm 2 mps 754 mmHg 69%
    18:00 +23°C° 0 mm 2 mps 754 mmHg 76%
    19:00 +21°C° 0 mm 1 mps 754 mmHg 83%
    20:00 +19°C° 0 mm 1 mps 754 mmHg 91%
    21:00 +19°C° 0 mm 1 mps 755 mmHg 91%
    22:00 +19°C° 0 mm 1 mps 755 mmHg 92%
    23:00 +18°C° 0 mm 1 mps 755 mmHg 92%
    Show more